Total_Precipitation_Accumulation
0.09 0.03 0.00 0.00 0.00 0.00 0.00 0.00 0.00 0.00 0.00 0.00 0.00 0.00 0.00 0.00 0.00 0.00 0.00 0.00 0.00 0.00 0.00 0.00 0.00 0.00 0.00 0.00 0.00 0.00 0.00 0.02 0.03 0.07 0.01 0.02 0.00 0.00 0.04 0.04 0.10 0.19 0.27
0.08 0.04 0.00 0.00 0.00 0.00 0.00 0.00 0.00 0.00 0.00 0.00 0.00 0.00 0.00 0.00 0.00 0.00 0.00 0.00 0.00 0.00 0.00 0.00 0.00 0.00 0.00 0.00 0.01 0.00 0.01 0.00 0.00 0.03 0.08 0.15 0.14 0.07 0.02 0.02 0.09 0.14 0.16
0.10 0.05 0.00 0.01 0.01 0.00 0.00 0.00 0.00 0.00 0.00 0.00 0.00 0.00 0.00 0.00 0.00 0.00 0.00 0.00 0.00 0.00 0.00 0.00 0.00 0.00 0.00 0.01 0.02 0.01 0.02 0.01 0.00 0.01 0.06 0.16 0.24 0.18 0.02 0.00 0.04 0.17 0.24
0.06 0.03 0.00 0.01 0.00 0.00 0.01 0.00 0.00 0.00 0.00 0.00 0.00 0.02 0.00 0.00 0.00 0.00 0.00 0.00 0.00 0.00 0.00 0.00 0.00 0.00 0.00 0.00 0.01 0.00 0.00 0.00 0.00 0.01 0.11 0.82 0.48 0.08 0.02 0.00 0.02 0.11 0.21
0.01 0.01 0.00 0.01 0.01 0.01 0.00 0.00 0.00 0.00 0.00 0.00 0.00 0.01 0.02 0.03 0.00 0.00 0.00 0.00 0.00 0.00 0.00 0.00 0.00 0.00 0.00 0.00 0.00 0.00 0.00 0.00 0.00 0.00 0.06 0.27 0.17 0.07 0.00 0.00 0.03 0.07 0.10
0.01 0.02 0.03 0.03 0.01 0.01 0.01 0.01 0.00 0.00 0.00 0.00 0.01 0.01 0.00 0.00 0.00 0.00 0.00 0.00 0.00 0.00 0.00 0.00 0.00 0.00 0.00 0.00 0.00 0.00 0.00 0.00 0.00 0.01 0.05 0.16 0.21 0.19 0.01 0.00 0.01 0.01 0.09
0.00 0.00 0.01 0.04 0.04 0.03 0.02 0.03 0.01 0.01 0.01 0.00 0.02 0.05 0.03 0.02 0.01 0.00 0.00 0.00 0.00 0.00 0.00 0.00 0.00 0.00 0.00 0.00 0.00 0.00 0.00 0.00 0.00 0.01 0.04 0.07 0.09 0.09 0.01 0.00 0.00 0.02 0.05
0.00 0.00 0.00 0.00 0.02 0.01 0.02 0.02 0.01 0.01 0.02 0.04 0.02 0.05 0.07 0.05 0.03 0.01 0.00 0.00 0.00 0.00 0.00 0.00 0.00 0.00 0.00 0.00 0.00 0.00 0.00 0.00 0.00 0.00 0.00 0.01 0.11 0.15 0.03 0.01 0.00 0.02 0.06
0.00 0.00 0.00 0.00 0.00 0.01 0.02 0.04 0.01 0.01 0.06 0.04 0.08 0.08 0.11 0.11 0.10 0.04 0.01 0.00 0.00 0.00 0.00 0.00 0.00 0.00 0.00 0.00 0.00 0.00 0.00 0.00 0.00 0.00 0.00 0.01 0.10 0.12 0.06 0.01 0.00 0.01 0.05
0.00 0.00 0.00 0.00 0.00 0.00 0.00 0.06 0.10 0.07 0.12 0.08 0.13 0.15 0.16 0.17 0.24 0.15 0.13 0.18 0.12 0.02 0.05 0.04 0.00 0.00 0.00 0.00 0.00 0.00 0.00 0.00 0.00 0.00 0.00 0.00 0.07 0.12 0.05 0.04 0.04 0.02 0.03
0.00 0.00 0.00 0.00 0.00 0.00 0.00 0.01 0.03 0.11 0.17 0.09 0.08 0.15 0.14 0.15 0.25 0.39 0.35 0.44 0.30 0.09 0.11 0.10 0.12 0.05 0.02 0.00 0.00 0.00 0.00 0.00 0.00 0.00 0.00 0.00 0.06 0.15 0.13 0.16 0.05 0.02 0.03
0.00 0.00 0.00 0.00 0.00 0.00 0.00 0.01 0.00 0.02 0.07 0.10 0.07 0.22 0.16 0.12 0.17 0.27 0.22 0.34 0.35 0.18 0.06 0.10 0.12 0.12 0.07 0.00 0.00 0.00 0.00 0.00 0.00 0.00 0.00 0.00 0.10 0.16 0.16 0.26 0.09 0.02 0.03
0.00 0.00 0.00 0.00 0.00 0.00 0.00 0.01 0.03 0.02 0.02 0.05 0.06 0.09 0.09 0.07 0.10 0.19 0.14 0.14 0.23 0.37 0.25 0.20 0.15 0.13 0.12 0.07 0.02 0.02 0.01 0.10 0.05 0.04 0.01 0.00 0.08 0.19 0.24 0.15 0.06 0.07 0.06
0.00 0.00 0.00 0.00 0.00 0.00 0.01 0.04 0.06 0.01 0.02 0.03 0.05 0.09 0.09 0.11 0.12 0.08 0.10 0.13 0.11 0.19 0.28 0.32 0.31 0.31 0.31 0.29 0.17 0.16 0.12 0.14 0.19 0.20 0.16 0.05 0.05 0.18 0.27 0.21 0.10 0.05 0.05
0.00 0.00 0.00 0.00 0.00 0.00 0.02 0.14 0.06 0.03 0.04 0.02 0.02 0.03 0.05 0.13 0.14 0.19 0.15 0.22 0.14 0.11 0.18 0.23 0.21 0.22 0.26 0.28 0.14 0.19 0.30 0.51 0.67 0.37 0.18 0.11 0.03 0.08 0.23 0.27 0.14 0.05 0.04
0.00 0.00 0.00 0.00 0.00 0.00 0.00 0.05 0.12 0.14 0.15 0.14 0.08 0.10 0.22 0.33 0.34 0.34 0.24 0.19 0.06 0.07 0.16 0.20 0.21 0.12 0.18 0.25 0.23 0.11 0.13 0.25 0.44 0.38 0.09 0.09 0.10 0.09 0.17 0.25 0.28 0.20 0.07
0.00 0.00 0.00 0.00 0.00 0.00 0.00 0.00 0.11 0.15 0.19 0.22 0.27 0.29 0.35 0.35 0.30 0.33 0.28 0.12 0.07 0.10 0.17 0.16 0.18 0.18 0.14 0.15 0.16 0.20 0.19 0.05 0.06 0.11 0.15 0.12 0.17 0.17 0.08 0.09 0.15 0.21 0.16
0.00 0.00 0.00 0.00 0.00 0.00 0.00 0.00 0.01 0.09 0.28 0.30 0.30 0.32 0.46 0.47 0.38 0.33 0.25 0.16 0.18 0.25 0.26 0.20 0.28 0.33 0.24 0.13 0.15 0.18 0.24 0.21 0.10 0.07 0.08 0.11 0.12 0.07 0.08 0.07 0.05 0.12 0.17
0.00 0.00 0.00 0.00 0.00 0.00 0.00 0.00 0.00 0.00 0.04 0.20 0.30 0.30 0.21 0.26 0.30 0.33 0.28 0.27 0.45 0.62 0.71 0.70 0.62 0.42 0.27 0.20 0.09 0.05 0.08 0.11 0.07 0.04 0.02 0.01 0.03 0.06 0.04 0.03 0.04 0.05 0.08
0.00 0.00 0.00 0.00 0.00 0.00 0.00 0.00 0.00 0.00 0.00 0.03 0.14 0.22 0.23 0.29 0.34 0.39 0.32 0.19 0.20 0.47 0.54 0.49 0.24 0.19 0.16 0.14 0.09 0.06 0.04 0.06 0.06 0.05 0.02 0.01 0.01 0.04 0.08 0.05 0.06 0.06 0.05
0.00 0.00 0.00 0.00 0.00 0.00 0.00 0.00 0.00 0.00 0.00 0.00 0.01 0.05 0.17 0.33 0.58 0.60 0.42 0.39 0.33 0.33 0.46 0.84 0.90 0.90 0.65 0.32 0.22 0.11 0.03 0.04 0.05 0.06 0.05 0.03 0.03 0.03 0.05 0.06 0.06 0.07 0.05
0.00 0.00 0.00 0.00 0.00 0.00 0.00 0.00 0.00 0.00 0.00 0.00 0.00 0.00 0.04 0.16 0.32 0.47 0.45 0.49 0.55 0.60 0.47 0.40 0.52 0.48 0.42 0.36 0.36 0.27 0.18 0.12 0.07 0.05 0.04 0.03 0.03 0.03 0.06 0.08 0.08 0.07 0.06
0.00 0.00 0.00 0.00 0.00 0.00 0.00 0.00 0.00 0.00 0.00 0.00 0.00 0.00 0.00 0.04 0.21 0.32 0.33 0.39 0.53 0.93 1.12 0.76 0.67 0.71 0.59 0.47 0.35 0.37 0.32 0.19 0.11 0.04 0.03 0.04 0.05 0.05 0.03 0.07 0.08 0.10 0.07
0.00 0.00 0.00 0.00 0.00 0.00 0.00 0.00 0.00 0.00 0.00 0.00 0.00 0.00 0.00 0.00 0.08 0.21 0.44 0.55 0.58 0.55 0.79 1.06 0.88 0.75 0.78 0.76 0.76 0.56 0.39 0.31 0.26 0.17 0.07 0.06 0.08 0.10 0.11 0.08 0.14 0.18 0.13
0.00 0.00 0.00 0.00 0.00 0.00 0.00 0.00 0.00 0.00 0.01 0.01 0.01 0.00 0.00 0.00 0.03 0.12 0.38 0.68 0.79 1.01 0.86 1.02 1.20 1.29 1.02 0.79 0.99 0.99 0.89 0.73 0.56 0.39 0.25 0.16 0.14 0.16 0.19 0.25 0.19 0.21 0.16
0.00 0.00 0.00 0.00 0.00 0.00 0.00 0.00 0.00 0.01 0.01 0.02 0.02 0.01 0.00 0.00 0.00 0.05 0.17 0.45 0.90 1.06 1.21 1.04 0.97 1.33 1.58 1.38 0.90 0.99 0.87 0.78 0.68 0.65 0.44 0.28 0.30 0.38 0.39 0.38 0.33 0.31 0.41